FENGYUN 1C DEB, 38803

Orbit data source: Space-Track

FENGYUN 1C DEB, 38803 is space debris in SSO originally from a launch on Mon, 10 May 1999 UTC launched from the Taiyaun Space Center, China (TSC). Fengyun 1C debris stems from the Chinese weather satellite Fengyun-1C, which was intentionally destroyed by a Chinese anti-satellite missile in 2007. This event dramatically increased the amount of space debris, with thousands of trackable fragments posing hazards to satellites and human spaceflight. The Fengyun 1C debris cloud has become a focal point in discussions about space sustainability and the need for international regulations to prevent the creation of new debris.

Loading next visibility...
Identifier
38803, 1999-025EUT
Orbit
SSO
Country
Flag of CNCN / PRC
Related business
Manufacturer
Unknown
Mission
Spacecraft
Bus & Motor
Unknown
Mass
Unknown
Launch date (UTC)
1999-05-10 (27 years ago)
Launch vehicle
Unknown
Launch site
Taiyaun Space Center, China (TSC)
Object type
Payload
Rocket body
Debris
Shape & HBR
Unknown shape, 0.1 m
Radar Cross Section
Small (<0.1 m²)

Expand to show TLE details & history
Last TLE update: 1 month ago

TLE from 1 month ago
0 FENGYUN 1C DEB
1 38803U 99025EUT 26216.99343091  .00002610  00000-0  10968-2 0  9997
2 38803  99.1318 235.2978 0064394  82.3422 278.5063 14.25647188635627
Epoch: 2026-08-04T23:50Z
TLE epoch observation values (Epoch: 2026-08-04T23:50:32.430Z)
Latitude
-0.00006°
Longitude
-75.89153°
Altitude
802.673 km
Speed
7.456 km/s
True Right ascension
15h 41m 11s
True Declination
0° 00' 00"
Sunlit
Object was in daylight at epoch
Visualization orbit readout
Latitude
Unknown
Longitude
Unknown
Altitude
Unknown
Speed
Unknown
Apparent Right ascension
Unknown
Apparent Declination
Unknown
Sunlit
N/A
Visualization observer readout
Local Sidereal Time
18:51:52
Azimuth
Unknown
Elevation
Unknown
Doppler factor
Unknown
Orbital elements
Apogee altitude
849.735 km
Perigee altitude
757.244 km
Semi-major axis
7,181.626 km
Eccentricity
0.00644
Inclination
99.1318°
RAAN
235.2978°
Arg. of periapsis
82.3422°
True anomaly
277.77567°
Mean anomaly
278.5063°
Eccentric anomaly
278.14107°
Mean motion
3.56623 °/min
Orbital period
100.95 mins
BSTAR
0.0010968
Loading maneuver chart data...
Computing Atmospheric mass density...

Documentation

Showing up to 5 results
|